#timestamp,LO_Frequency,Hit,StdDev 
1595347215.2,286047001.3,N
1595347235.0,286047001.4,N
1595347235.9,286047001.4,N
1595347255.8,286047004.4,N
1595347275.6,286047003.6,N
1595347295.4,286047004.4,N
1595347315.3,286047003.7,N
1595347335.1,286047003.9,N
1595347355.8,286047002.5,N
1595347375.7,286046999.9,N
1595347395.5,286046998.2,N
1595347415.4,286046998.7,N
1595347435.2,286046999.4,N
1595347455.0,286046996.7,N
1595347455.9,286046996.7,N
1595347475.8,286046997.1,N
1595347495.6,286046996.9,N
1595347515.5,286046996.8,N
1595347535.3,286046998.0,N
1595347555.1,286046995.0,N
1595347575.9,286046997.5,N
1595347595.7,286046997.1,N
1595347615.6,286046997.9,N
1595347635.4,286046996.7,N
1595347655.2,286046998.7,N
1595347675.1,286046998.7,N
1595347676.0,286046998.7,N
1595347695.8,286046999.0,N
1595347715.6,286046999.6,N
1595347735.5,286046999.4,N
1595347755.3,286046996.6,N
1595347775.2,286046999.1,N
1595347795.9,286046996.9,N
1595347815.7,286046998.9,N
1595347835.6,286046999.6,N
1595347855.4,286046999.4,N
1595347875.3,286046997.7,N
1595347895.1,286046997.7,N
1595347896.0,286046997.7,N
1595347915.8,286046999.4,N
1595347935.7,286046998.5,N
1595347955.5,286046998.3,N
1595347975.3,286046998.2,N
1595347995.2,286046998.4,N
1595348015.0,286046996.5,Y
1595348015.9,286046996.5,P
1595348035.8,286047000.4,N
1595348055.6,286047000.1,N
1595348075.4,286047000.6,N
1595348095.3,286047001.2,N
1595348115.1,286047000.3,N
1595348135.9,286046999.8,N
1595348155.7,286047000.2,N
1595348175.5,286046999.8,N
1595348195.4,286046999.8,N
1595348215.2,286047002.7,N
1595348235.1,286046999.9,N
1595348236.0,286046999.9,N
1595348255.8,286047000.2,N
1595348275.6,286047000.0,N
1595348295.5,286047000.2,N
1595348315.3,286047000.7,N
1595348335.1,286047000.2,N
1595348355.9,286047002.8,N
1595348375.7,286047002.4,N
1595348395.6,286046999.8,N
1595348415.4,286047002.3,N
1595348435.2,286047002.4,N
1595348455.1,286047002.2,N
1595348456.0,286047002.2,N
1595348475.8,286047001.6,N
1595348495.7,286047011.9,Y
1595348515.5,286047002.6,P
1595348535.3,286046999.7,N
1595348555.2,286047000.9,N
1595348575.0,286047000.3,N
1595348575.9,286047000.3,N
1595348595.7,286047000.6,N
1595348615.6,286046998.1,N
1595348635.4,286047000.1,N
1595348655.3,286047002.4,N
1595348675.1,286046999.8,N
1595348676.0,286046999.8,N
1595348695.8,286047002.8,N
1595348715.7,286046999.9,N
1595348735.5,286046999.7,N
1595348755.4,286047000.6,N
1595348775.2,286047000.0,N
1595348795.0,286047000.2,N
1595348795.9,286047000.2,N
1595348815.8,286047000.6,N
1595348835.6,286047000.0,N
1595348855.4,286047001.0,N
1595348875.3,286047000.4,N
1595348895.1,286047000.1,N
1595348915.9,286047000.5,N
1595348935.7,286047000.0,N
1595348955.5,286046999.8,N
1595348975.4,286046999.7,N
1595348995.2,286047002.8,N
1595349015.0,286047000.0,N
1595349015.9,286047000.0,N
1595349035.8,286047002.8,N
1595349055.6,286047002.1,N
1595349075.5,286047002.7,N
1595349095.3,286047000.1,N
1595349115.1,286047000.0,N
1595349135.9,286047002.6,N
1595349155.7,286046999.7,N
1595349175.5,286047000.3,N
1595349195.4,286046999.7,N
1595349215.2,286046999.9,N
1595349235.1,286047002.1,N
1595349236.0,286047002.1,N
1595349255.8,286046999.7,N
1595349275.6,286046999.7,N
1595349295.5,286046999.7,N
1595349315.3,286047000.0,N
1595349335.2,286047000.4,N
1595349355.9,286047000.6,N
1595349375.7,286047000.4,N
1595349395.6,286047000.3,N
1595349415.4,286047000.1,N
1595349435.2,286047002.5,N
1595349455.1,286047002.5,N
1595349456.0,286047002.5,N
1595349475.8,286047002.1,N
1595349495.7,286047001.6,N
1595349515.5,286047002.0,N
1595349535.3,286046999.7,N
1595349555.2,286047002.4,N
1595349575.0,286047002.0,N
1595349575.9,286047002.0,N
1595349595.8,286047001.6,N
1595349615.6,286047001.9,N
1595349635.4,286047002.0,N
1595349655.3,286047001.9,N
1595349675.1,286047002.0,N
1595349695.8,286047002.6,N
1595349715.7,286046999.8,N
1595349735.5,286047000.1,N
1595349755.4,286047002.8,N
1595349775.2,286047000.0,N
1595349795.0,286046999.8,N
1595349795.9,286046999.8,N
1595349815.8,286047000.1,N
1595349835.6,286047000.5,N
1595349855.5,286047000.7,N
1595349875.3,286047000.6,N
1595349895.1,286047000.3,N
1595349915.9,286047001.0,N
1595349935.7,286046999.7,N
1595349955.5,286047000.3,N
1595349975.4,286047002.3,N
1595349995.2,286047002.2,N
1595350015.1,286047002.7,N
1595350016.0,286047002.7,N
1595350035.8,286046999.9,N
1595350055.6,286047000.2,N
1595350075.5,286047000.2,N
1595350095.3,286047002.6,N
1595350115.2,286047002.8,N
1595350135.9,286047002.7,N
1595350155.7,286047002.6,N
1595350175.6,286047002.8,N
1595350195.4,286047000.1,N
1595350215.3,286047000.0,N
1595350235.1,286047002.8,N
1595350236.0,286047002.8,N
1595350255.8,286047000.0,N
1595350275.7,286047002.7,N
1595350295.5,286046999.7,N
1595350315.4,286047002.4,N
1595350335.2,286047002.3,N
1595350355.0,286047002.6,N
1595350355.9,286047002.6,N
1595350375.8,286047002.2,N
1595350395.6,286047002.5,N
1595350415.4,286047001.4,N
1595350435.3,286047001.4,N
1595350455.1,286047003.8,Y
1595350475.9,286047000.8,P
1595350495.7,286047000.5,N
1595350515.5,286047000.4,N
1595350535.4,286047000.0,N
1595350555.2,286047000.5,N
1595350575.1,286047000.7,N
1595350576.0,286047000.7,N
1595350595.8,286046998.3,Y
1595350615.6,286046999.4,P
1595350635.5,286046998.4,N
1595350655.3,286046999.3,N
1595350675.2,286046996.9,Y
1595350695.9,286046997.2,P
1595350715.7,286046996.7,N
1595350735.6,286046996.9,N
1595350755.4,286046997.4,N
1595350775.3,286046997.9,N
1595350795.1,286046997.5,N
1595350796.0,286046997.5,N
